EW1458 Weather Reports


Display with metric or nautical units.
time (UTC)temp
F
wind
direction
speed
MPH
gust
MPH
rain 1hr
in
rain 24hr
in
rain mn
in
humidity
%
barometer
mb
20260902223618 66 25 0.0 1.0 0.00 0.00 0.00 76 1020.9
20260902223117 67 272 0.0 0.0 0.00 0.00 0.00 74 1021.0
20260902223009 67 272 0.0 1.0 0.00 0.00 0.00 72 1020.9
20260902222110 68 308 0.0 2.0 0.00 0.00 0.00 71 1020.8
20260902221609 68 323 0.0 2.0 0.00 0.00 0.00 69 1020.9
20260902221110 68 19 0.0 2.0 0.00 0.00 0.00 67 1020.7
20260902220600 69 0 0.0 2.0 0.00 0.00 0.00 66 1020.7
20260902220108 69 25 1.0 3.0 0.00 0.00 0.00 65 1020.8
20260902215554 69 25 1.0 5.0 0.00 0.00 0.00 64 1020.8
20260902215052 69 55 3.0 5.0 0.00 0.00 0.00 63 1020.5
20260902214551 70 40 1.0 5.0 0.00 0.00 0.00 63 1020.6
20260902214525 71 36 2.0 6.0 0.00 0.00 0.00 61 1020.8
20260902213549 71 250 1.0 6.0 0.00 0.00 0.00 60 1020.8
20260902213047 71 26 3.0 5.0 0.00 0.00 0.00 60 1020.8
20260902212543 71 34 2.0 6.0 0.00 0.00 0.00 60 1021.0
20260902212035 72 52 2.0 6.0 0.00 0.00 0.00 58 1020.8
20260902211531 72 34 3.0 6.0 0.00 0.00 0.00 58 1020.8
20260902211043 72 12 5.0 6.0 0.00 0.00 0.00 57 1020.9
20260902210527 73 14 4.0 7.0 0.00 0.00 0.00 57 1020.9
20260902210025 72 62 4.0 9.0 0.00 0.00 0.00 57 1021.0
20260902205523 73 11 3.0 9.0 0.00 0.00 0.00 58 1021.0
20260902205014 73 48 3.0 7.0 0.00 0.00 0.00 56 1021.0
20260902204513 73 59 4.0 8.0 0.00 0.00 0.00 56 1021.1
20260902204012 73 41 4.0 8.0 0.00 0.00 0.00 55 1021.0
20260902203512 73 138 2.0 9.0 0.00 0.00 0.00 57 1021.1
20260902203436 73 57 3.0 9.0 0.00 0.00 0.00 56 1021.0
20260902202502 74 11 1.0 6.0 0.00 0.00 0.00 54 1021.2
20260902201958 75 30 3.0 6.0 0.00 0.00 0.00 54 1021.0
20260902201531 74 13 1.0 6.0 0.00 0.00 0.00 54 1021.2
20260902200946 74 343 2.0 6.0 0.00 0.00 0.00 55 1021.1
20260902200444 74 96 2.0 6.0 0.00 0.00 0.00 55 1021.1
20260902195945 75 355 2.0 6.0 0.00 0.00 0.00 54 1021.3
20260902195445 75 62 6.0 6.0 0.00 0.00 0.00 53 1021.2
20260902194944 74 46 2.0 4.0 0.00 0.00 0.00 55 1021.3
20260902194441 74 4 1.0 3.0 0.00 0.00 0.00 55 1021.5
20260902193934 74 38 1.0 5.0 0.00 0.00 0.00 54 1021.4
20260902193434 74 308 2.0 7.0 0.00 0.00 0.00 55 1021.6
20260902192933 75 300 3.0 7.0 0.00 0.00 0.00 53 1021.3
20260902192431 75 293 2.0 5.0 0.00 0.00 0.00 54 1021.3
20260902191927 75 240 2.0 6.0 0.00 0.00 0.00 52 1021.5
20260902191428 75 104 2.0 6.0 0.00 0.00 0.00 51 1021.5
20260902190929 74 359 0.0 5.0 0.00 0.00 0.00 54 1021.4
20260902190415 74 313 2.0 6.0 0.00 0.00 0.00 56 1021.4
20260902185915 74 286 1.0 6.0 0.00 0.00 0.00 57 1021.5
20260902185419 74 291 1.0 6.0 0.00 0.00 0.00 57 1021.5
20260902184912 74 284 1.0 7.0 0.00 0.00 0.00 58 1021.5
20260902184412 74 293 2.0 7.0 0.00 0.00 0.00 58 1021.5
20260902183914 74 283 3.0 8.0 0.00 0.00 0.00 59 1021.5
20260902183819 74 298 6.0 8.0 0.00 0.00 0.00 58 1021.6
20260902182909 73 301 2.0 8.0 0.00 0.00 0.00 60 1021.6
20260902182411 73 313 5.0 8.0 0.00 0.00 0.00 59 1021.6
20260902181905 74 296 2.0 6.0 0.00 0.00 0.00 59 1021.6
20260902181359 74 296 2.0 6.0 0.00 0.00 0.00 59 1021.9
20260902180853 74 1 2.0 7.0 0.00 0.00 0.00 57 1021.7
20260902180348 74 315 4.0 7.0 0.00 0.00 0.00 57 1021.7
20260902175849 74 283 4.0 6.0 0.00 0.00 0.00 57 1021.8
20260902175812 75 41 5.0 6.0 0.00 0.00 0.00 58 1021.4
20260902175300 75 300 3.0 5.0 0.00 0.00 0.00 56 1021.7
20260902174343 75 124 0.0 6.0 0.00 0.00 0.00 53 1021.6
20260902173839 75 56 4.0 6.0 0.00 0.00 0.00 52 1021.7
20260902173337 76 57 5.0 5.0 0.00 0.00 0.00 52 1021.5
20260902172834 76 302 3.0 8.0 0.00 0.00 0.00 53 1021.7
20260902172332 76 340 1.0 8.0 0.00 0.00 0.00 53 1021.7
20260902171831 76 48 4.0 5.0 0.00 0.00 0.00 51 1021.6
20260902171756 74 277 2.0 5.0 0.00 0.00 0.00 55 1021.4
20260902170831 74 18 2.0 5.0 0.00 0.00 0.00 53 1021.6
20260902170340 74 42 1.0 5.0 0.00 0.00 0.00 57 1021.6
20260902165839 74 43 1.0 9.0 0.00 0.00 0.00 55 1021.6
20260902165319 74 67 1.0 9.0 0.00 0.00 0.00 53 1021.7
20260902165244 75 26 0.0 4.0 0.00 0.00 0.00 54 1021.8
20260902164319 76 55 0.0 4.0 0.00 0.00 0.00 54 1021.9
20260902163815 74 227 0.0 5.0 0.00 0.00 0.00 58 1021.9
20260902163311 74 56 2.0 5.0 0.00 0.00 0.00 55 1021.9
20260902162811 74 193 2.0 4.0 0.00 0.00 0.00 58 1021.8
20260902162307 73 8 2.0 6.0 0.00 0.00 0.00 58 1022.0
20260902161803 73 290 2.0 6.0 0.00 0.00 0.00 58 1022.0
20260902161305 74 72 1.0 4.0 0.00 0.00 0.00 59 1022.2
20260902161211 73 74 2.0 6.0 0.00 0.00 0.00 59 1022.1
20260902160306 72 4 2.0 9.0 0.00 0.00 0.00 58 1022.1
20260902160218 73 69 4.0 9.0 0.00 0.00 0.00 58 1022.1
20260902155306 73 244 0.0 6.0 0.00 0.00 0.00 59 1022.0
20260902154801 73 42 0.0 6.0 0.00 0.00 0.00 61 1022.0
20260902154302 73 318 2.0 4.0 0.00 0.00 0.00 59 1022.0
20260902153800 72 280 4.0 6.0 0.00 0.00 0.00 61 1021.9
20260902153256 71 10 2.0 6.0 0.00 0.00 0.00 63 1021.8
20260902152756 71 66 3.0 10.0 0.00 0.00 0.00 62 1022.1
20260902152257 71 63 2.0 10.0 0.00 0.00 0.00 62 1021.9
20260902151757 72 35 5.0 7.0 0.00 0.00 0.00 62 1021.8
20260902151719 71 43 7.0 9.0 0.00 0.00 0.00 62 1021.8
20260902150753 71 57 4.0 9.0 0.00 0.00 0.00 65 1021.9
20260902150252 71 48 7.0 9.0 0.00 0.00 0.00 65 1022.0
20260902145749 70 90 0.0 9.0 0.00 0.00 0.00 69 1021.9
20260902145248 69 23 2.0 9.0 0.00 0.00 0.00 68 1021.7
20260902144747 69 19 3.0 9.0 0.00 0.00 0.00 68 1021.8
20260902144249 70 95 2.0 6.0 0.00 0.00 0.00 68 1021.8
20260902143746 69 31 2.0 8.0 0.00 0.00 0.00 69 1021.9
20260902143246 69 50 4.0 8.0 0.00 0.00 0.00 70 1022.1
20260902142746 68 52 1.0 10.0 0.00 0.00 0.00 74 1022.0
20260902142245 67 36 6.0 10.0 0.00 0.00 0.00 72 1022.0
20260902141742 67 31 1.0 8.0 0.00 0.00 0.00 75 1022.2
20260902141244 67 33 5.0 8.0 0.00 0.00 0.00 74 1022.2
20260902140744 66 63 2.0 10.0 0.00 0.00 0.00 77 1022.4
20260902140243 66 40 5.0 11.0 0.00 0.00 0.00 76 1022.5
20260902135743 66 47 7.0 11.0 0.00 0.00 0.00 75 1022.4
20260902135644 66 50 6.0 9.0 0.00 0.00 0.00 76 1022.3
20260902134740 66 59 3.0 8.0 0.00 0.00 0.00 78 1022.4
20260902134238 65 95 4.0 8.0 0.00 0.00 0.00 79 1022.4
20260902133738 65 42 3.0 8.0 0.00 0.00 0.00 80 1022.4
20260902133234 65 53 3.0 7.0 0.00 0.00 0.00 84 1022.5
20260902132733 64 40 5.0 9.0 0.00 0.00 0.00 83 1022.5
20260902132232 63 15 7.0 9.0 0.00 0.00 0.00 85 1022.5
20260902131729 63 357 4.0 8.0 0.00 0.00 0.00 88 1022.7
20260902131227 62 52 4.0 8.0 0.00 0.00 0.00 90 1022.5
20260902130724 62 31 4.0 7.0 0.00 0.00 0.00 91 1022.6
20260902130215 61 49 5.0 7.0 0.00 0.00 0.00 96 1022.9
20260902130141 60 54 3.0 5.0 0.00 0.00 0.00 99 1023.0
20260902125208 59 88 4.0 6.0 0.00 0.00 0.00 99 1022.7
20260902124707 59 47 2.0 6.0 0.00 0.00 0.00 99 1022.7
20260902124206 58 37 0.0 5.0 0.00 0.00 0.00 99 1022.8
20260902124109 57 39 3.0 7.0 0.00 0.00 0.00 99 1022.7
20260902123210 56 14 3.0 7.0 0.00 0.00 0.00 99 1022.8
20260902122706 56 346 1.0 7.0 0.00 0.00 0.00 99 1022.9
20260902122203 56 24 2.0 5.0 0.00 0.00 0.00 99 1022.7
20260902121704 55 32 3.0 5.0 0.00 0.00 0.00 99 1022.8
20260902121202 55 37 4.0 5.0 0.00 0.00 0.00 99 1023.0
20260902121125 55 74 2.0 4.0 0.00 0.00 0.00 99 1022.9
20260902120200 54 36 1.0 4.0 0.00 0.00 0.00 99 1023.1
20260902115701 53 48 1.0 4.0 0.00 0.00 0.00 99 1023.0
20260902115201 53 52 3.0 4.0 0.00 0.00 0.00 99 1022.9
20260902114656 52 47 2.0 4.0 0.00 0.00 0.00 99 1023.0
20260902114151 52 50 3.0 3.0 0.00 0.00 0.00 99 1022.9
20260902113649 51 44 2.0 2.0 0.00 0.00 0.00 99 1023.0
20260902113149 51 37 0.0 2.0 0.00 0.00 0.00 99 1023.1
20260902112645 51 35 0.0 2.0 0.00 0.00 0.00 99 1023.1
20260902112145 51 60 2.0 2.0 0.00 0.00 0.00 99 1023.2
20260902111655 50 19 0.0 2.0 0.00 0.00 0.00 99 1023.0
20260902111143 50 54 1.0 2.0 0.00 0.00 0.00 99 1023.0
20260902110639 50 64 0.0 3.0 0.00 0.00 0.00 99 1023.0
20260902110153 49 24 0.0 4.0 0.00 0.00 0.00 99 1022.8
20260902110136 49 73 0.0 4.0 0.00 0.00 0.00 99 1022.8
20260902105131 49 55 2.0 4.0 0.00 0.00 0.00 99 1022.8
20260902104630 49 38 3.0 4.0 0.00 0.00 0.00 99 1022.9
20260902104125 48 14 2.0 4.0 0.00 0.00 0.00 99 1022.5
20260902103624 48 51 2.0 4.0 0.00 0.00 0.00 99 1022.6
20260902103120 48 34 2.0 3.0 0.00 0.00 0.00 99 1022.7
20260902102619 47 49 2.0 2.0 0.00 0.00 0.00 99 1022.6
20260902102118 47 46 2.0 2.0 0.00 0.00 0.00 99 1022.5
20260902102013 46 43 0.0 2.0 0.00 0.00 0.00 99 1022.7
20260902101111 46 20 0.0 1.0 0.00 0.00 0.00 99 1022.5
20260902100613 46 37 0.0 1.0 0.00 0.00 0.00 99 1022.4
20260902100534 46 117 0.0 1.0 0.00 0.00 0.00 99 1022.4
20260902095622 46 21 0.0 2.0 0.00 0.00 0.00 99 1022.3
20260902095119 46 78 0.0 2.0 0.00 0.00 0.00 99 1022.4
20260902094613 46 36 1.0 2.0 0.00 0.00 0.00 99 1022.2
20260902094112 45 12 2.0 2.0 0.00 0.00 0.00 98 1022.3
20260902093611 46 73 0.0 1.0 0.00 0.00 0.00 98 1022.2
20260902093108 46 99 0.0 1.0 0.00 0.00 0.00 98 1022.0
20260902092617 46 19 1.0 1.0 0.00 0.00 0.00 98 1022.2
20260902092102 46 0 0.0 2.0 0.00 0.00 0.00 98 1022.2
20260902091602 46 7 0.0 2.0 0.00 0.00 0.00 98 1022.1
20260902091114 46 110 0.0 1.0 0.00 0.00 0.00 98 1022.0
20260902091036 46 25 0.0 2.0 0.00 0.00 0.00 98 1022.1
20260902090539 46 338 0.0 2.0 0.00 0.00 0.00 98 1022.0
20260902085554 46 57 1.0 2.0 0.00 0.00 0.00 98 1021.9
20260902085051 46 31 1.0 2.0 0.00 0.00 0.00 98 1021.9
20260902084601 46 345 0.0 2.0 0.00 0.00 0.00 98 1021.8
20260902084058 46 4 0.0 2.0 0.00 0.00 0.00 98 1021.7
20260902083557 47 345 0.0 2.0 0.00 0.00 0.00 98 1021.9
20260902083044 47 17 0.0 1.0 0.00 0.00 0.00 98 1021.8
20260902082958 47 99 0.0 1.0 0.00 0.00 0.00 98 1021.7
20260902082055 47 96 0.0 2.0 0.00 0.00 0.00 98 1021.6
20260902081543 47 27 0.0 2.0 0.00 0.00 0.00 98 1021.6
20260902081046 47 34 1.0 2.0 0.00 0.00 0.00 98 1021.5
20260902080540 47 36 0.0 2.0 0.00 0.00 0.00 98 1021.6
20260902080454 47 9 0.0 2.0 0.00 0.00 0.00 98 1021.6
20260902075544 47 9 0.0 2.0 0.00 0.00 0.00 98 1021.2
20260902075533 47 64 0.0 1.0 0.00 0.00 0.00 98 1021.6
20260902074730 47 359 0.0 2.0 0.00 0.00 0.00 98 1021.4
20260902073539 48 319 0.0 2.0 0.00 0.00 0.00 98 1021.3
20260902073028 48 7 0.0 1.0 0.00 0.00 0.00 98 1021.4
20260902072525 48 46 0.0 1.0 0.00 0.00 0.00 98 1021.4
20260902072441 49 51 0.0 2.0 0.00 0.00 0.00 98 1021.0
20260902071524 49 51 0.0 4.0 0.00 0.00 0.00 98 1021.2
20260902071019 49 0 0.0 4.0 0.00 0.00 0.00 98 1021.1
20260902070520 49 356 1.0 3.0 0.00 0.00 0.00 98 1021.1
20260902070020 49 39 2.0 3.0 0.00 0.00 0.00 98 1021.0
20260902065519 49 38 1.0 3.0 0.00 0.00 0.00 98 1021.0
20260902065017 49 41 2.0 3.0 0.00 0.00 0.00 98 1020.7
20260902064938 49 33 2.0 3.0 0.00 0.00 0.00 98 1020.8
20260902064012 49 12 0.0 1.0 0.00 0.00 0.00 98 1020.9
20260902063930 49 359 0.0 1.0 0.00 0.00 0.00 98 1020.8
20260902063013 49 329 0.0 2.0 0.00 0.00 0.00 98 1021.0
20260902062509 49 25 1.0 2.0 0.00 0.00 0.00 98 1020.8
20260902062011 48 18 0.0 1.0 0.00 0.00 0.00 97 1021.0
20260902061508 49 341 0.0 1.0 0.00 0.00 0.00 97 1020.8
20260902061008 49 12 0.0 1.0 0.00 0.00 0.00 97 1020.9
20260902060503 49 308 0.0 1.0 0.00 0.00 0.00 97 1020.9
20260902055959 49 308 0.0 1.0 0.00 0.00 0.00 97 1020.9
20260902055526 49 0 0.0 2.0 0.00 0.00 0.00 97 1020.6
20260902055458 49 279 0.0 1.0 0.00 0.00 0.00 97 1020.7
20260902054456 49 306 0.0 2.0 0.00 0.00 0.00 97 1020.7
20260902053958 49 345 0.0 1.0 0.00 0.00 0.00 97 1020.8
20260902053450 50 290 0.0 1.0 0.00 0.00 0.00 97 1020.7
20260902052925 50 0 0.0 1.0 0.00 0.00 0.00 97 1020.5
20260902052425 50 110 0.0 2.0 0.00 0.00 0.00 97 1020.4
20260902051918 50 30 0.0 2.0 0.00 0.00 0.00 97 1020.5
20260902051838 51 48 1.0 2.0 0.00 0.00 0.00 97 1020.3
20260902050916 51 34 0.0 2.0 0.00 0.00 0.00 97 1020.4
20260902050415 51 311 0.0 2.0 0.00 0.00 0.00 97 1020.5
20260902045915 51 339 0.0 1.0 0.00 0.00 0.00 97 1020.6
20260902045415 51 117 0.0 2.0 0.00 0.00 0.00 97 1020.3
20260902044910 51 335 0.0 2.0 0.00 0.00 0.00 97 1020.3
20260902044411 51 249 1.0 2.0 0.00 0.00 0.00 97 1020.4
20260902043908 52 25 0.0 4.0 0.00 0.00 0.00 97 1020.2
20260902043408 53 60 1.0 4.0 0.00 0.00 0.00 98 1020.2
20260902042907 53 25 2.0 3.0 0.00 0.00 0.00 98 1020.2
20260902042401 53 36 2.0 3.0 0.00 0.00 0.00 98 1020.2
20260902041901 52 40 2.0 3.0 0.00 0.00 0.00 98 1020.2
20260902041357 52 39 1.0 2.0 0.00 0.00 0.00 97 1020.4
20260902040855 52 9 0.0 3.0 0.00 0.00 0.00 97 1020.1
20260902040355 53 20 2.0 3.0 0.00 0.00 0.00 97 1020.1
20260902035855 52 36 0.0 2.0 0.00 0.00 0.00 97 1020.1
20260902035818 52 18 1.0 2.0 0.00 0.00 0.00 97 1020.2
20260902034847 52 341 0.0 2.0 0.00 0.00 0.00 97 1020.0
20260902034347 52 7 0.0 2.0 0.00 0.00 0.00 97 1020.2
20260902033849 52 28 0.0 2.0 0.00 0.00 0.00 97 1020.0
20260902033347 52 7 0.0 2.0 0.00 0.00 0.00 96 1020.1
20260902032839 52 290 0.0 2.0 0.00 0.00 0.00 96 1019.9
20260902032331 52 13 1.0 1.0 0.00 0.00 0.00 96 1020.2
20260902031831 53 37 0.0 1.0 0.00 0.00 0.00 96 1020.2
20260902031505 53 15 1.0 2.0 0.00 0.00 0.00 96 1020.1
20260902030329 53 38 0.0 2.0 0.00 0.00 0.00 96 1020.2
20260902025826 53 37 0.0 2.0 0.00 0.00 0.00 96 1020.1
20260902025324 53 110 0.0 2.0 0.00 0.00 0.00 96 1020.1
20260902024818 53 37 1.0 2.0 0.00 0.00 0.00 96 1020.0
20260902024320 53 12 0.0 2.0 0.00 0.00 0.00 95 1020.2
20260902024252 53 37 0.0 2.0 0.00 0.00 0.00 95 1020.1
20260902023311 53 332 1.0 2.0 0.00 0.00 0.00 95 1020.0
20260902023214 53 332 2.0 2.0 0.00 0.00 0.00 95 1020.1
20260902022314 54 315 1.0 2.0 0.00 0.00 0.00 95 1019.9
20260902021809 55 30 0.0 2.0 0.00 0.00 0.00 96 1019.9
20260902021711 55 20 2.0 2.0 0.00 0.00 0.00 96 1020.0
20260902021235 55 13 0.0 2.0 0.00 0.00 0.00 95 1020.0
20260902020303 55 24 1.0 2.0 0.00 0.00 0.00 95 1019.9
20260902015804 55 32 1.0 1.0 0.00 0.00 0.00 94 1019.8
20260902015302 56 30 0.0 3.0 0.00 0.00 0.00 95 1019.9
20260902014800 56 12 0.0 3.0 0.00 0.00 0.00 95 1019.9
20260902014245 56 5 2.0 2.0 0.00 0.00 0.00 95 1019.8
20260902013734 56 358 2.0 2.0 0.00 0.00 0.00 94 1020.0
20260902013233 56 17 0.0 2.0 0.00 0.00 0.00 94 1019.9
20260902012743 56 110 0.0 2.0 0.00 0.00 0.00 93 1019.8
20260902012226 56 37 0.0 3.0 0.00 0.00 0.00 93 1019.7
20260902011721 57 22 1.0 3.0 0.00 0.00 0.00 93 1019.9
20260902011219 57 31 2.0 2.0 0.00 0.00 0.00 92 1019.8
20260902010717 57 37 0.0 2.0 0.00 0.00 0.00 92 1019.7
20260902010215 58 29 1.0 2.0 0.00 0.00 0.00 91 1019.7
20260902005712 58 30 1.0 2.0 0.00 0.00 0.00 91 1019.5
20260902005210 58 3 1.0 2.0 0.00 0.00 0.00 91 1019.5
20260902004709 58 30 2.0 2.0 0.00 0.00 0.00 90 1019.5
20260902004636 58 30 2.0 2.0 0.00 0.00 0.00 90 1019.3
20260902003707 59 19 1.0 3.0 0.00 0.00 0.00 89 1019.3
20260902003351 59 37 2.0 2.0 0.00 0.00 0.00 89 1019.2
20260902002619 60 49 1.0 2.0 0.00 0.00 0.00 87 1019.1
20260902002126 60 31 2.0 3.0 0.00 0.00 0.00 87 1019.3
20260902001133 60 13 1.0 3.0 0.00 0.00 0.00 86 1019.0
20260902000633 60 21 1.0 5.0 0.00 0.00 0.00 86 1019.0
20260902000131 60 34 2.0 5.0 0.00 0.00 0.00 85 1019.1
20260901235629 60 40 4.0 5.0 0.00 0.00 0.00 85 1018.9
20260901235126 60 11 1.0 2.0 0.00 0.00 0.00 85 1018.9
20260901234624 61 348 0.0 2.0 0.00 0.00 0.00 84 1018.8
20260901234119 61 19 0.0 2.0 0.00 0.00 0.00 83 1018.7
20260901233610 62 33 0.0 2.0 0.00 0.00 0.00 82 1018.7
20260901233104 62 23 2.0 2.0 0.00 0.00 0.00 81 1018.6
20260901232603 62 11 1.0 2.0 0.00 0.00 0.00 80 1018.4
20260901232101 63 332 1.0 2.0 0.00 0.00 0.00 79 1018.3
20260901231601 63 15 1.0 2.0 0.00 0.00 0.00 78 1018.5
20260901231259 63 32 0.0 2.0 0.00 0.00 0.00 78 1018.5
20260901230242 64 25 0.0 3.0 0.00 0.00 0.00 76 1018.2
20260901225454 65 326 0.0 4.0 0.00 0.00 0.00 73 1018.2